| time (UTC) | temp F | wind direction | speed MPH | gust MPH | rain 1hr in | rain 24hr in | rain mn in | humidity % | barometer mb |
| 20260507164124 | 55 | 294 | 3.0 | 3.0 | 0.00 | 0.00 | 0.00 | 34 | 1012.2 |
| 20260507163621 | 55 | 102 | 1.0 | 1.0 | 0.00 | 0.00 | 0.00 | 37 | 1012.2 |
| 20260507163119 | 54 | 208 | 2.0 | 2.0 | 0.00 | 0.00 | 0.00 | 34 | 1012.2 |
| 20260507162614 | 54 | 93 | 1.0 | 1.0 | 0.00 | 0.00 | 0.00 | 38 | 1012.2 |
| 20260507162111 | 54 | 47 | 1.0 | 1.0 | 0.00 | 0.00 | 0.00 | 36 | 1012.5 |
| 20260507161607 | 53 | 20 | 1.0 | 1.0 | 0.00 | 0.00 | 0.00 | 35 | 1012.5 |
| 20260507161104 | 53 | 204 | 1.0 | 2.0 | 0.00 | 0.00 | 0.00 | 37 | 1012.5 |
| 20260507160600 | 53 | 358 | 4.0 | 6.0 | 0.00 | 0.00 | 0.00 | 36 | 1012.8 |
| 20260507160057 | 53 | 75 | 1.0 | 1.0 | 0.00 | 0.00 | 0.00 | 36 | 1012.8 |
| 20260507155552 | 53 | 104 | 2.0 | 3.0 | 0.00 | 0.00 | 0.00 | 39 | 1012.5 |
| 20260507155049 | 53 | 229 | 2.0 | 3.0 | 0.00 | 0.00 | 0.00 | 38 | 1012.8 |
| 20260507154546 | 53 | 277 | 2.0 | 2.0 | 0.00 | 0.00 | 0.00 | 39 | 1012.8 |
| 20260507154043 | 53 | 112 | 1.0 | 1.0 | 0.00 | 0.00 | 0.00 | 38 | 1012.8 |
| 20260507153540 | 52 | 89 | 2.0 | 2.0 | 0.00 | 0.00 | 0.00 | 37 | 1013.2 |
| 20260507153036 | 52 | 162 | 1.0 | 1.0 | 0.00 | 0.00 | 0.00 | 38 | 1013.2 |
| 20260507152532 | 51 | 90 | 1.0 | 1.0 | 0.00 | 0.00 | 0.00 | 40 | 1013.2 |
| 20260507152029 | 50 | 179 | 2.0 | 2.0 | 0.00 | 0.00 | 0.00 | 38 | 1013.2 |
| 20260507151525 | 50 | 253 | 2.0 | 2.0 | 0.00 | 0.00 | 0.00 | 39 | 1013.2 |
| 20260507151022 | 49 | 6 | 3.0 | 3.0 | 0.00 | 0.00 | 0.00 | 40 | 1013.6 |
| 20260507150519 | 47 | 84 | 0.0 | 1.0 | 0.00 | 0.00 | 0.00 | 42 | 1013.9 |
| 20260507150016 | 46 | 112 | 0.0 | 0.0 | 0.00 | 0.00 | 0.00 | 47 | 1013.9 |
| 20260507145510 | 45 | 279 | 3.0 | 3.0 | 0.00 | 0.00 | 0.00 | 49 | 1013.9 |
| 20260507145009 | 44 | 105 | 1.0 | 1.0 | 0.00 | 0.00 | 0.00 | 50 | 1014.3 |
| 20260507144505 | 44 | 105 | 0.0 | 0.0 | 0.00 | 0.00 | 0.00 | 52 | 1014.6 |
| 20260507144002 | 43 | 147 | 0.0 | 1.0 | 0.00 | 0.00 | 0.00 | 55 | 1014.6 |
| 20260507143459 | 43 | 308 | 0.0 | 0.0 | 0.00 | 0.00 | 0.00 | 55 | 1015.0 |
| 20260507142956 | 42 | 242 | 2.0 | 2.0 | 0.00 | 0.00 | 0.00 | 55 | 1015.0 |
| 20260507142452 | 42 | 154 | 1.0 | 2.0 | 0.00 | 0.00 | 0.00 | 56 | 1015.0 |
| 20260507141949 | 41 | 107 | 1.0 | 1.0 | 0.00 | 0.00 | 0.00 | 57 | 1015.0 |
| 20260507141445 | 40 | 36 | 0.0 | 0.0 | 0.00 | 0.00 | 0.00 | 58 | 1015.0 |
| 20260507140942 | 39 | 35 | 0.0 | 1.0 | 0.00 | 0.00 | 0.00 | 61 | 1015.3 |
| 20260507140438 | 39 | 21 | 0.0 | 1.0 | 0.00 | 0.00 | 0.00 | 60 | 1015.6 |
| 20260507135936 | 38 | 20 | 0.0 | 0.0 | 0.00 | 0.00 | 0.00 | 62 | 1015.6 |
| 20260507135433 | 38 | 333 | 0.0 | 1.0 | 0.00 | 0.00 | 0.00 | 62 | 1015.6 |
| 20260507134930 | 37 | 359 | 0.0 | 0.0 | 0.00 | 0.00 | 0.00 | 63 | 1015.6 |
| 20260507134426 | 37 | 294 | 1.0 | 1.0 | 0.00 | 0.00 | 0.00 | 63 | 1015.6 |
| 20260507133923 | 37 | 310 | 0.0 | 1.0 | 0.00 | 0.00 | 0.00 | 64 | 1016.0 |
| 20260507133419 | 37 | 310 | 0.0 | 0.0 | 0.00 | 0.00 | 0.00 | 64 | 1015.6 |
| 20260507132917 | 37 | 286 | 0.0 | 0.0 | 0.00 | 0.00 | 0.00 | 65 | 1015.6 |
| 20260507132413 | 36 | 299 | 1.0 | 1.0 | 0.00 | 0.00 | 0.00 | 65 | 1015.6 |
| 20260507131910 | 36 | 296 | 0.0 | 1.0 | 0.00 | 0.00 | 0.00 | 66 | 1015.6 |
| 20260507131407 | 36 | 349 | 0.0 | 1.0 | 0.00 | 0.00 | 0.00 | 67 | 1016.0 |
| 20260507130904 | 35 | 269 | 1.0 | 2.0 | 0.00 | 0.00 | 0.00 | 68 | 1016.3 |
| 20260507130401 | 35 | 21 | 0.0 | 0.0 | 0.00 | 0.00 | 0.00 | 69 | 1015.6 |
| 20260507125900 | 34 | 21 | 0.0 | 0.0 | 0.00 | 0.00 | 0.00 | 69 | 1016.0 |
| 20260507125357 | 34 | 21 | 0.0 | 0.0 | 0.00 | 0.00 | 0.00 | 70 | 1016.3 |
| 20260507124854 | 33 | 21 | 0.0 | 0.0 | 0.00 | 0.00 | 0.00 | 71 | 1016.0 |
| 20260507124350 | 33 | 21 | 0.0 | 0.0 | 0.00 | 0.00 | 0.00 | 72 | 1016.0 |
| 20260507123849 | 33 | 18 | 0.0 | 0.0 | 0.00 | 0.00 | 0.00 | 73 | 1016.3 |
| 20260507123345 | 32 | 18 | 0.0 | 0.0 | 0.00 | 0.00 | 0.00 | 74 | 1016.3 |
| 20260507122842 | 32 | 18 | 0.0 | 0.0 | 0.00 | 0.00 | 0.00 | 75 | 1016.0 |
| 20260507122337 | 32 | 18 | 0.0 | 0.0 | 0.00 | 0.00 | 0.00 | 75 | 1016.0 |
| 20260507121834 | 32 | 18 | 1.0 | 1.0 | 0.00 | 0.00 | 0.00 | 76 | 1016.3 |
| 20260507121329 | 32 | 18 | 1.0 | 1.0 | 0.00 | 0.00 | 0.00 | 76 | 1016.3 |
| 20260507120826 | 32 | 18 | 0.0 | 0.0 | 0.00 | 0.00 | 0.00 | 76 | 1016.3 |
| 20260507120322 | 31 | 18 | 0.0 | 1.0 | 0.00 | 0.00 | 0.00 | 76 | 1016.3 |
| 20260507115819 | 31 | 18 | 0.0 | 0.0 | 0.00 | 0.00 | 0.00 | 77 | 1016.3 |
| 20260507115315 | 31 | 18 | 0.0 | 0.0 | 0.00 | 0.00 | 0.00 | 77 | 1016.3 |
| 20260507114811 | 31 | 18 | 0.0 | 0.0 | 0.00 | 0.00 | 0.00 | 77 | 1016.3 |
| 20260507114308 | 31 | 18 | 0.0 | 0.0 | 0.00 | 0.00 | 0.00 | 78 | 1016.7 |
| 20260507113805 | 30 | 18 | 0.0 | 0.0 | 0.00 | 0.00 | 0.00 | 78 | 1016.3 |
| 20260507113302 | 30 | 18 | 0.0 | 0.0 | 0.00 | 0.00 | 0.00 | 78 | 1016.3 |
| 20260507112800 | 30 | 18 | 0.0 | 0.0 | 0.00 | 0.00 | 0.00 | 78 | 1016.3 |
| 20260507112256 | 30 | 18 | 0.0 | 0.0 | 0.00 | 0.00 | 0.00 | 78 | 1016.0 |
| 20260507111755 | 30 | 18 | 0.0 | 0.0 | 0.00 | 0.00 | 0.00 | 78 | 1016.3 |
| 20260507111250 | 30 | 18 | 0.0 | 0.0 | 0.00 | 0.00 | 0.00 | 78 | 1016.3 |
| 20260507110747 | 30 | 18 | 0.0 | 0.0 | 0.00 | 0.00 | 0.00 | 77 | 1016.3 |
| 20260507110244 | 30 | 18 | 0.0 | 0.0 | 0.00 | 0.00 | 0.00 | 77 | 1016.3 |
| 20260507105740 | 30 | 18 | 0.0 | 0.0 | 0.00 | 0.00 | 0.00 | 77 | 1016.7 |
| 20260507105236 | 30 | 18 | 0.0 | 0.0 | 0.00 | 0.00 | 0.00 | 77 | 1016.3 |
| 20260507104734 | 30 | 18 | 0.0 | 0.0 | 0.00 | 0.00 | 0.00 | 77 | 1016.3 |
| 20260507104230 | 30 | 18 | 0.0 | 0.0 | 0.00 | 0.00 | 0.00 | 77 | 1016.3 |
| 20260507103726 | 30 | 18 | 0.0 | 0.0 | 0.00 | 0.00 | 0.00 | 76 | 1016.3 |
| 20260507103217 | 30 | 18 | 0.0 | 0.0 | 0.00 | 0.00 | 0.00 | 76 | 1016.3 |
| 20260507102713 | 30 | 18 | 0.0 | 0.0 | 0.00 | 0.00 | 0.00 | 76 | 1016.3 |
| 20260507102210 | 30 | 18 | 0.0 | 0.0 | 0.00 | 0.00 | 0.00 | 76 | 1016.3 |
| 20260507101706 | 30 | 18 | 0.0 | 0.0 | 0.00 | 0.00 | 0.00 | 76 | 1016.3 |
| 20260507101201 | 30 | 18 | 0.0 | 0.0 | 0.00 | 0.00 | 0.00 | 76 | 1016.3 |
| 20260507100659 | 30 | 18 | 0.0 | 0.0 | 0.00 | 0.00 | 0.00 | 75 | 1016.3 |
| 20260507100157 | 30 | 18 | 0.0 | 0.0 | 0.00 | 0.00 | 0.00 | 75 | 1016.3 |
| 20260507095655 | 30 | 18 | 0.0 | 0.0 | 0.00 | 0.00 | 0.00 | 75 | 1016.3 |
| 20260507095151 | 31 | 18 | 0.0 | 0.0 | 0.00 | 0.00 | 0.00 | 75 | 1016.3 |
| 20260507094648 | 31 | 18 | 0.0 | 0.0 | 0.00 | 0.00 | 0.00 | 75 | 1016.3 |
| 20260507094144 | 31 | 18 | 0.0 | 0.0 | 0.00 | 0.00 | 0.00 | 74 | 1016.3 |
| 20260507093642 | 31 | 18 | 0.0 | 0.0 | 0.00 | 0.00 | 0.00 | 74 | 1016.3 |
| 20260507093141 | 31 | 18 | 0.0 | 0.0 | 0.00 | 0.00 | 0.00 | 74 | 1016.3 |
| 20260507092637 | 31 | 18 | 0.0 | 0.0 | 0.00 | 0.00 | 0.00 | 74 | 1016.7 |
| 20260507092134 | 32 | 18 | 0.0 | 0.0 | 0.00 | 0.00 | 0.00 | 74 | 1016.3 |
| 20260507091630 | 32 | 18 | 0.0 | 0.0 | 0.00 | 0.00 | 0.00 | 73 | 1016.7 |
| 20260507091126 | 32 | 18 | 0.0 | 0.0 | 0.00 | 0.00 | 0.00 | 73 | 1016.3 |
| 20260507090621 | 32 | 18 | 0.0 | 0.0 | 0.00 | 0.00 | 0.00 | 73 | 1016.7 |
| 20260507090120 | 32 | 18 | 0.0 | 0.0 | 0.00 | 0.00 | 0.00 | 73 | 1016.7 |
| 20260507085616 | 32 | 18 | 0.0 | 0.0 | 0.00 | 0.00 | 0.00 | 73 | 1016.7 |
| 20260507085113 | 32 | 18 | 0.0 | 0.0 | 0.00 | 0.00 | 0.00 | 73 | 1016.7 |
| 20260507084610 | 32 | 18 | 0.0 | 0.0 | 0.00 | 0.00 | 0.00 | 73 | 1016.7 |
| 20260507084107 | 32 | 18 | 0.0 | 0.0 | 0.00 | 0.00 | 0.00 | 73 | 1017.0 |
| 20260507083603 | 32 | 18 | 0.0 | 0.0 | 0.00 | 0.00 | 0.00 | 73 | 1016.7 |
| 20260507083100 | 32 | 18 | 0.0 | 0.0 | 0.00 | 0.00 | 0.00 | 73 | 1017.0 |
| 20260507082556 | 32 | 18 | 0.0 | 0.0 | 0.00 | 0.00 | 0.00 | 73 | 1017.0 |
| 20260507082053 | 32 | 18 | 0.0 | 0.0 | 0.00 | 0.00 | 0.00 | 72 | 1017.0 |
| 20260507081549 | 32 | 18 | 0.0 | 0.0 | 0.00 | 0.00 | 0.00 | 72 | 1017.0 |
| 20260507081046 | 32 | 18 | 0.0 | 0.0 | 0.00 | 0.00 | 0.00 | 73 | 1017.0 |
| 20260507080542 | 32 | 18 | 0.0 | 0.0 | 0.00 | 0.00 | 0.00 | 73 | 1017.0 |
| 20260507080039 | 32 | 18 | 0.0 | 0.0 | 0.00 | 0.00 | 0.00 | 73 | 1017.0 |
| 20260507075539 | 32 | 18 | 0.0 | 0.0 | 0.00 | 0.00 | 0.00 | 73 | 1017.0 |
| 20260507075030 | 32 | 18 | 0.0 | 0.0 | 0.00 | 0.00 | 0.00 | 73 | 1017.0 |
| 20260507074527 | 32 | 18 | 0.0 | 0.0 | 0.00 | 0.00 | 0.00 | 73 | 1017.0 |
| 20260507074026 | 32 | 18 | 0.0 | 0.0 | 0.00 | 0.00 | 0.00 | 73 | 1017.0 |
| 20260507073521 | 32 | 18 | 0.0 | 0.0 | 0.00 | 0.00 | 0.00 | 73 | 1017.0 |
| 20260507073018 | 32 | 18 | 0.0 | 0.0 | 0.00 | 0.00 | 0.00 | 73 | 1017.3 |
| 20260507072516 | 32 | 18 | 0.0 | 0.0 | 0.00 | 0.00 | 0.00 | 73 | 1017.0 |
| 20260507072013 | 32 | 17 | 0.0 | 0.0 | 0.00 | 0.00 | 0.00 | 72 | 1017.0 |
| 20260507071510 | 32 | 18 | 0.0 | 0.0 | 0.00 | 0.00 | 0.00 | 72 | 1017.3 |
| 20260507071006 | 32 | 18 | 0.0 | 0.0 | 0.00 | 0.00 | 0.00 | 72 | 1017.3 |
| 20260507070504 | 32 | 17 | 0.0 | 0.0 | 0.00 | 0.00 | 0.00 | 72 | 1017.0 |
| 20260507070001 | 32 | 18 | 0.0 | 0.0 | 0.00 | 0.00 | 0.00 | 72 | 1017.3 |
| 20260507065457 | 32 | 18 | 0.0 | 0.0 | 0.00 | 0.00 | 0.00 | 72 | 1017.3 |
| 20260507064954 | 31 | 18 | 0.0 | 0.0 | 0.00 | 0.00 | 0.00 | 72 | 1017.3 |
| 20260507064452 | 31 | 18 | 0.0 | 0.0 | 0.00 | 0.00 | 0.00 | 72 | 1017.0 |
| 20260507063950 | 31 | 18 | 0.0 | 0.0 | 0.00 | 0.00 | 0.00 | 72 | 1017.3 |
| 20260507063447 | 31 | 17 | 0.0 | 0.0 | 0.00 | 0.00 | 0.00 | 72 | 1017.3 |
| 20260507062944 | 31 | 18 | 0.0 | 0.0 | 0.00 | 0.00 | 0.00 | 72 | 1017.3 |
| 20260507062441 | 31 | 17 | 0.0 | 0.0 | 0.00 | 0.00 | 0.00 | 72 | 1017.3 |
| 20260507061938 | 31 | 18 | 0.0 | 0.0 | 0.00 | 0.00 | 0.00 | 72 | 1017.3 |
| 20260507061436 | 31 | 18 | 0.0 | 0.0 | 0.00 | 0.00 | 0.00 | 72 | 1017.0 |
| 20260507060934 | 31 | 17 | 0.0 | 0.0 | 0.00 | 0.00 | 0.00 | 71 | 1017.3 |
| 20260507060431 | 31 | 18 | 0.0 | 0.0 | 0.00 | 0.00 | 0.00 | 71 | 1017.3 |
| 20260507055927 | 31 | 17 | 0.0 | 0.0 | 0.00 | 0.00 | 0.00 | 71 | 1017.3 |
| 20260507055423 | 32 | 17 | 0.0 | 0.0 | 0.00 | 0.00 | 0.00 | 71 | 1017.3 |
| 20260507054920 | 32 | 18 | 0.0 | 0.0 | 0.00 | 0.00 | 0.00 | 70 | 1017.3 |
| 20260507054416 | 32 | 18 | 0.0 | 0.0 | 0.00 | 0.00 | 0.00 | 70 | 1017.8 |
| 20260507053913 | 32 | 17 | 0.0 | 0.0 | 0.00 | 0.00 | 0.00 | 69 | 1017.3 |
| 20260507053411 | 32 | 18 | 0.0 | 0.0 | 0.00 | 0.00 | 0.00 | 69 | 1017.3 |
| 20260507052910 | 32 | 17 | 0.0 | 0.0 | 0.00 | 0.00 | 0.00 | 68 | 1017.0 |
| 20260507052406 | 32 | 18 | 0.0 | 0.0 | 0.00 | 0.00 | 0.00 | 68 | 1017.3 |
| 20260507051903 | 32 | 18 | 0.0 | 0.0 | 0.00 | 0.00 | 0.00 | 68 | 1017.3 |
| 20260507051401 | 33 | 18 | 0.0 | 0.0 | 0.00 | 0.00 | 0.00 | 68 | 1017.3 |
| 20260507050857 | 33 | 18 | 0.0 | 0.0 | 0.00 | 0.00 | 0.00 | 67 | 1017.8 |
| 20260507050354 | 33 | 18 | 0.0 | 0.0 | 0.00 | 0.00 | 0.00 | 67 | 1017.8 |
| 20260507045851 | 33 | 17 | 0.0 | 0.0 | 0.00 | 0.00 | 0.00 | 66 | 1017.3 |
| 20260507045347 | 33 | 17 | 0.0 | 0.0 | 0.00 | 0.00 | 0.00 | 65 | 1017.3 |
| 20260507044845 | 33 | 17 | 0.0 | 0.0 | 0.00 | 0.00 | 0.00 | 63 | 1017.3 |
| 20260507044341 | 34 | 18 | 0.0 | 0.0 | 0.00 | 0.00 | 0.00 | 63 | 1017.3 |
| 20260507043837 | 34 | 18 | 0.0 | 0.0 | 0.00 | 0.00 | 0.00 | 63 | 1017.3 |
| 20260507043334 | 34 | 18 | 0.0 | 0.0 | 0.00 | 0.00 | 0.00 | 62 | 1017.3 |
| 20260507042830 | 35 | 18 | 0.0 | 0.0 | 0.00 | 0.00 | 0.00 | 62 | 1017.3 |
| 20260507042326 | 35 | 18 | 0.0 | 0.0 | 0.00 | 0.00 | 0.00 | 62 | 1017.3 |
| 20260507041823 | 35 | 18 | 0.0 | 0.0 | 0.00 | 0.00 | 0.00 | 62 | 1017.3 |
| 20260507041320 | 35 | 18 | 0.0 | 0.0 | 0.00 | 0.00 | 0.00 | 60 | 1017.3 |
| 20260507040817 | 35 | 18 | 0.0 | 0.0 | 0.00 | 0.00 | 0.00 | 61 | 1017.3 |
| 20260507040313 | 35 | 18 | 0.0 | 0.0 | 0.00 | 0.00 | 0.00 | 59 | 1017.3 |
| 20260507035809 | 35 | 18 | 0.0 | 0.0 | 0.00 | 0.00 | 0.00 | 58 | 1017.3 |
| 20260507035306 | 35 | 18 | 0.0 | 0.0 | 0.00 | 0.00 | 0.00 | 59 | 1017.8 |
| 20260507034803 | 36 | 18 | 0.0 | 0.0 | 0.00 | 0.00 | 0.00 | 58 | 1017.3 |
| 20260507034259 | 36 | 18 | 0.0 | 0.0 | 0.00 | 0.00 | 0.00 | 58 | 1017.8 |
| 20260507033757 | 36 | 18 | 0.0 | 0.0 | 0.00 | 0.00 | 0.00 | 58 | 1017.3 |
| 20260507033255 | 36 | 18 | 1.0 | 1.0 | 0.00 | 0.00 | 0.00 | 57 | 1017.8 |
| 20260507032751 | 36 | 18 | 0.0 | 0.0 | 0.00 | 0.00 | 0.00 | 57 | 1017.8 |
| 20260507032247 | 37 | 18 | 0.0 | 0.0 | 0.00 | 0.00 | 0.00 | 57 | 1017.8 |
| 20260507031744 | 37 | 18 | 0.0 | 0.0 | 0.00 | 0.00 | 0.00 | 56 | 1017.8 |
| 20260507031241 | 37 | 18 | 0.0 | 0.0 | 0.00 | 0.00 | 0.00 | 55 | 1017.3 |
| 20260507030738 | 37 | 18 | 0.0 | 0.0 | 0.00 | 0.00 | 0.00 | 55 | 1017.3 |
| 20260507030235 | 38 | 18 | 0.0 | 0.0 | 0.00 | 0.00 | 0.00 | 54 | 1017.3 |
| 20260507025732 | 38 | 18 | 0.0 | 0.0 | 0.00 | 0.00 | 0.00 | 53 | 1017.8 |
| 20260507025229 | 38 | 18 | 0.0 | 0.0 | 0.00 | 0.00 | 0.00 | 52 | 1017.8 |
| 20260507024727 | 39 | 18 | 0.0 | 0.0 | 0.00 | 0.00 | 0.00 | 52 | 1017.3 |
| 20260507024224 | 39 | 18 | 0.0 | 0.0 | 0.00 | 0.00 | 0.00 | 52 | 1017.3 |
| 20260507023720 | 39 | 18 | 0.0 | 0.0 | 0.00 | 0.00 | 0.00 | 52 | 1017.3 |
| 20260507023217 | 40 | 18 | 0.0 | 0.0 | 0.00 | 0.00 | 0.00 | 51 | 1017.0 |
| 20260507022714 | 40 | 18 | 0.0 | 0.0 | 0.00 | 0.00 | 0.00 | 50 | 1017.3 |
| 20260507022210 | 40 | 18 | 0.0 | 0.0 | 0.00 | 0.00 | 0.00 | 50 | 1017.0 |
| 20260507021707 | 40 | 18 | 0.0 | 0.0 | 0.00 | 0.00 | 0.00 | 50 | 1017.3 |
| 20260507021201 | 41 | 18 | 0.0 | 1.0 | 0.00 | 0.00 | 0.00 | 49 | 1017.3 |
| 20260507020701 | 41 | 18 | 0.0 | 0.0 | 0.00 | 0.00 | 0.00 | 49 | 1017.3 |
| 20260507020156 | 41 | 18 | 1.0 | 1.0 | 0.00 | 0.00 | 0.00 | 49 | 1016.7 |
| 20260507015655 | 41 | 18 | 0.0 | 0.0 | 0.00 | 0.00 | 0.00 | 48 | 1017.0 |
| 20260507015151 | 42 | 18 | 0.0 | 0.0 | 0.00 | 0.00 | 0.00 | 48 | 1016.7 |
| 20260507014648 | 42 | 18 | 0.0 | 0.0 | 0.00 | 0.00 | 0.00 | 48 | 1016.7 |
| 20260507014144 | 42 | 18 | 0.0 | 0.0 | 0.00 | 0.00 | 0.00 | 47 | 1016.7 |
| 20260507013641 | 43 | 18 | 0.0 | 0.0 | 0.00 | 0.00 | 0.00 | 46 | 1016.7 |
| 20260507013138 | 43 | 18 | 0.0 | 0.0 | 0.00 | 0.00 | 0.00 | 45 | 1016.7 |
| 20260507012636 | 43 | 18 | 0.0 | 0.0 | 0.00 | 0.00 | 0.00 | 44 | 1016.7 |
| 20260507012131 | 44 | 18 | 0.0 | 0.0 | 0.00 | 0.00 | 0.00 | 43 | 1016.3 |
| 20260507011630 | 44 | 18 | 0.0 | 0.0 | 0.00 | 0.00 | 0.00 | 44 | 1016.3 |
| 20260507011125 | 44 | 18 | 0.0 | 0.0 | 0.00 | 0.00 | 0.00 | 43 | 1016.7 |
| 20260507010620 | 45 | 18 | 0.0 | 1.0 | 0.00 | 0.00 | 0.00 | 42 | 1016.7 |
| 20260507010116 | 45 | 2 | 0.0 | 0.0 | 0.00 | 0.00 | 0.00 | 41 | 1016.7 |
| 20260507005614 | 45 | 21 | 1.0 | 1.0 | 0.00 | 0.00 | 0.00 | 41 | 1016.3 |
| 20260507005110 | 46 | 17 | 0.0 | 0.0 | 0.00 | 0.00 | 0.00 | 42 | 1016.7 |
| 20260507004607 | 46 | 26 | 0.0 | 0.0 | 0.00 | 0.00 | 0.00 | 41 | 1016.3 |
| 20260507004104 | 46 | 359 | 1.0 | 1.0 | 0.00 | 0.00 | 0.00 | 41 | 1016.3 |
| 20260507003600 | 46 | 349 | 2.0 | 2.0 | 0.00 | 0.00 | 0.00 | 39 | 1016.3 |
| 20260507003055 | 46 | 359 | 1.0 | 1.0 | 0.00 | 0.00 | 0.00 | 38 | 1016.7 |
| 20260507002552 | 46 | 47 | 1.0 | 1.0 | 0.00 | 0.00 | 0.00 | 39 | 1016.7 |
| 20260507002048 | 46 | 285 | 3.0 | 3.0 | 0.00 | 0.00 | 0.00 | 38 | 1016.3 |
| 20260507001545 | 46 | 348 | 1.0 | 2.0 | 0.00 | 0.00 | 0.00 | 38 | 1016.3 |
| 20260507001042 | 46 | 55 | 0.0 | 0.0 | 0.00 | 0.00 | 0.00 | 40 | 1016.3 |
| 20260507000538 | 46 | 1 | 4.0 | 7.0 | 0.00 | 0.00 | 0.00 | 39 | 1016.3 |
| 20260507000034 | 46 | 325 | 2.0 | 3.0 | 0.00 | 0.00 | 0.00 | 39 | 1016.3 |
| 20260506235531 | 46 | 286 | 4.0 | 4.0 | 0.00 | 0.00 | 0.00 | 39 | 1016.3 |
| 20260506235027 | 46 | 119 | 2.0 | 3.0 | 0.00 | 0.00 | 0.00 | 41 | 1016.3 |
| 20260506234525 | 46 | 290 | 4.0 | 6.0 | 0.00 | 0.00 | 0.00 | 38 | 1016.3 |
| 20260506234016 | 46 | 336 | 4.0 | 4.0 | 0.00 | 0.00 | 0.00 | 39 | 1016.0 |
| 20260506233512 | 46 | 3 | 2.0 | 2.0 | 0.00 | 0.00 | 0.00 | 39 | 1016.0 |
| 20260506233010 | 46 | 257 | 4.0 | 6.0 | 0.00 | 0.00 | 0.00 | 39 | 1016.3 |
| 20260506232505 | 46 | 219 | 3.0 | 3.0 | 0.00 | 0.00 | 0.00 | 38 | 1016.3 |
| 20260506232001 | 46 | 302 | 2.0 | 3.0 | 0.00 | 0.00 | 0.00 | 40 | 1016.3 |
| 20260506231459 | 46 | 280 | 1.0 | 2.0 | 0.00 | 0.00 | 0.00 | 41 | 1016.7 |
| 20260506230956 | 46 | 290 | 2.0 | 3.0 | 0.00 | 0.00 | 0.00 | 38 | 1016.7 |
| 20260506230452 | 46 | 245 | 1.0 | 2.0 | 0.00 | 0.00 | 0.00 | 39 | 1016.7 |
| 20260506225949 | 46 | 349 | 3.0 | 6.0 | 0.00 | 0.00 | 0.00 | 39 | 1016.7 |
| 20260506225446 | 46 | 273 | 2.0 | 2.0 | 0.00 | 0.00 | 0.00 | 39 | 1016.3 |
| 20260506224937 | 46 | 304 | 4.0 | 6.0 | 0.00 | 0.00 | 0.00 | 39 | 1016.7 |
| 20260506224435 | 46 | 359 | 2.0 | 2.0 | 0.00 | 0.00 | 0.00 | 40 | 1016.7 |
| 20260506223931 | 46 | 351 | 0.0 | 1.0 | 0.00 | 0.00 | 0.00 | 40 | 1016.7 |
| 20260506223426 | 46 | 261 | 3.0 | 4.0 | 0.00 | 0.00 | 0.00 | 40 | 1016.7 |
| 20260506222924 | 46 | 271 | 4.0 | 6.0 | 0.00 | 0.00 | 0.00 | 40 | 1016.7 |
| 20260506222420 | 46 | 343 | 3.0 | 3.0 | 0.00 | 0.00 | 0.00 | 38 | 1016.7 |
| 20260506221917 | 46 | 279 | 4.0 | 7.0 | 0.00 | 0.00 | 0.00 | 39 | 1016.7 |
| 20260506221414 | 46 | 302 | 3.0 | 4.0 | 0.00 | 0.00 | 0.00 | 39 | 1016.7 |
| 20260506220912 | 46 | 323 | 3.0 | 4.0 | 0.00 | 0.00 | 0.00 | 40 | 1016.7 |
| 20260506220407 | 46 | 297 | 4.0 | 4.0 | 0.00 | 0.00 | 0.00 | 40 | 1016.7 |
| 20260506215904 | 46 | 271 | 2.0 | 3.0 | 0.00 | 0.00 | 0.00 | 40 | 1016.7 |
| 20260506215400 | 46 | 330 | 3.0 | 6.0 | 0.00 | 0.00 | 0.00 | 39 | 1016.7 |
| 20260506214856 | 46 | 310 | 4.0 | 7.0 | 0.00 | 0.00 | 0.00 | 38 | 1016.7 |
| 20260506214353 | 45 | 290 | 5.0 | 7.0 | 0.00 | 0.00 | 0.00 | 39 | 1016.7 |
| 20260506213851 | 45 | 14 | 2.0 | 3.0 | 0.00 | 0.00 | 0.00 | 40 | 1016.7 |
| 20260506213348 | 45 | 310 | 4.0 | 6.0 | 0.00 | 0.00 | 0.00 | 39 | 1016.7 |
| 20260506212845 | 45 | 279 | 5.0 | 7.0 | 0.00 | 0.00 | 0.00 | 39 | 1016.7 |
| 20260506212341 | 45 | 271 | 4.0 | 6.0 | 0.00 | 0.00 | 0.00 | 40 | 1016.7 |
| 20260506211836 | 45 | 314 | 5.0 | 7.0 | 0.00 | 0.00 | 0.00 | 39 | 1016.7 |
| 20260506211332 | 46 | 315 | 4.0 | 4.0 | 0.00 | 0.00 | 0.00 | 39 | 1016.7 |
| 20260506210830 | 46 | 266 | 11.0 | 13.0 | 0.00 | 0.00 | 0.00 | 38 | 1016.7 |
| 20260506210327 | 45 | 303 | 2.0 | 2.0 | 0.00 | 0.00 | 0.00 | 40 | 1016.7 |
| 20260506205824 | 45 | 283 | 4.0 | 4.0 | 0.00 | 0.00 | 0.00 | 40 | 1017.0 |
| 20260506205320 | 45 | 262 | 5.0 | 6.0 | 0.00 | 0.00 | 0.00 | 39 | 1016.7 |
| 20260506204817 | 45 | 200 | 4.0 | 4.0 | 0.00 | 0.00 | 0.00 | 39 | 1017.0 |
| 20260506204314 | 45 | 352 | 2.0 | 3.0 | 0.00 | 0.00 | 0.00 | 39 | 1016.7 |
| 20260506203811 | 45 | 266 | 7.0 | 10.0 | 0.00 | 0.00 | 0.00 | 38 | 1016.7 |
| 20260506203303 | 45 | 274 | 5.0 | 7.0 | 0.00 | 0.00 | 0.00 | 39 | 1017.0 |
| 20260506202800 | 45 | 14 | 3.0 | 3.0 | 0.00 | 0.00 | 0.00 | 39 | 1017.3 |
| 20260506202257 | 45 | 216 | 3.0 | 4.0 | 0.00 | 0.00 | 0.00 | 40 | 1017.3 |
| 20260506201753 | 45 | 257 | 4.0 | 7.0 | 0.00 | 0.00 | 0.00 | 39 | 1017.0 |
| 20260506201250 | 45 | 253 | 4.0 | 6.0 | 0.00 | 0.00 | 0.00 | 40 | 1017.0 |
| 20260506200747 | 45 | 330 | 2.0 | 3.0 | 0.00 | 0.00 | 0.00 | 40 | 1017.0 |
| 20260506200243 | 45 | 328 | 5.0 | 7.0 | 0.00 | 0.00 | 0.00 | 40 | 1017.3 |
| 20260506195740 | 45 | 283 | 2.0 | 3.0 | 0.00 | 0.00 | 0.00 | 41 | 1017.3 |
| 20260506195236 | 45 | 208 | 3.0 | 4.0 | 0.00 | 0.00 | 0.00 | 40 | 1017.3 |
| 20260506194734 | 45 | 317 | 4.0 | 6.0 | 0.00 | 0.00 | 0.00 | 40 | 1017.3 |
| 20260506194230 | 45 | 281 | 4.0 | 6.0 | 0.00 | 0.00 | 0.00 | 40 | 1017.0 |
| 20260506193728 | 45 | 277 | 3.0 | 4.0 | 0.00 | 0.00 | 0.00 | 40 | 1017.0 |
| 20260506193225 | 45 | 287 | 1.0 | 1.0 | 0.00 | 0.00 | 0.00 | 40 | 1017.0 |
| 20260506192721 | 45 | 275 | 3.0 | 3.0 | 0.00 | 0.00 | 0.00 | 40 | 1017.3 |
| 20260506192218 | 45 | 283 | 4.0 | 6.0 | 0.00 | 0.00 | 0.00 | 40 | 1017.0 |
| 20260506191715 | 45 | 322 | 4.0 | 4.0 | 0.00 | 0.00 | 0.00 | 40 | 1017.3 |
| 20260506191211 | 45 | 315 | 4.0 | 4.0 | 0.00 | 0.00 | 0.00 | 40 | 1017.3 |
| 20260506190708 | 45 | 277 | 6.0 | 9.0 | 0.00 | 0.00 | 0.00 | 40 | 1017.0 |
| 20260506190205 | 45 | 259 | 3.0 | 4.0 | 0.00 | 0.00 | 0.00 | 40 | 1017.3 |
| 20260506185702 | 45 | 270 | 4.0 | 6.0 | 0.00 | 0.00 | 0.00 | 40 | 1017.0 |
| 20260506185158 | 45 | 287 | 3.0 | 4.0 | 0.00 | 0.00 | 0.00 | 39 | 1017.3 |
| 20260506184656 | 45 | 264 | 5.0 | 8.0 | 0.00 | 0.00 | 0.00 | 40 | 1017.0 |
| 20260506184153 | 45 | 211 | 4.0 | 6.0 | 0.00 | 0.00 | 0.00 | 40 | 1017.0 |
| 20260506183650 | 45 | 313 | 4.0 | 6.0 | 0.00 | 0.00 | 0.00 | 39 | 1017.0 |
| 20260506183145 | 45 | 297 | 3.0 | 4.0 | 0.00 | 0.00 | 0.00 | 39 | 1017.0 |
| 20260506182643 | 45 | 218 | 2.0 | 3.0 | 0.00 | 0.00 | 0.00 | 39 | 1017.0 |
| 20260506182140 | 45 | 300 | 5.0 | 6.0 | 0.00 | 0.00 | 0.00 | 39 | 1017.0 |
| 20260506181638 | 45 | 339 | 6.0 | 7.0 | 0.00 | 0.00 | 0.00 | 38 | 1017.0 |
| 20260506181135 | 45 | 294 | 6.0 | 7.0 | 0.00 | 0.00 | 0.00 | 38 | 1017.0 |
| 20260506180632 | 45 | 300 | 5.0 | 6.0 | 0.00 | 0.00 | 0.00 | 39 | 1016.7 |
| 20260506180128 | 45 | 309 | 6.0 | 8.0 | 0.00 | 0.00 | 0.00 | 38 | 1016.7 |
| 20260506175624 | 45 | 278 | 4.0 | 6.0 | 0.00 | 0.00 | 0.00 | 39 | 1017.0 |
| 20260506175120 | 45 | 314 | 2.0 | 2.0 | 0.00 | 0.00 | 0.00 | 39 | 1017.0 |
| 20260506174620 | 45 | 281 | 5.0 | 6.0 | 0.00 | 0.00 | 0.00 | 39 | 1017.0 |
| 20260506174116 | 45 | 282 | 2.0 | 3.0 | 0.00 | 0.00 | 0.00 | 39 | 1017.3 |
| 20260506173614 | 45 | 309 | 3.0 | 4.0 | 0.00 | 0.00 | 0.00 | 39 | 1016.7 |
| 20260506173110 | 45 | 222 | 4.0 | 6.0 | 0.00 | 0.00 | 0.00 | 39 | 1017.0 |
| 20260506172608 | 46 | 311 | 6.0 | 7.0 | 0.00 | 0.00 | 0.00 | 38 | 1016.7 |
| 20260506172103 | 46 | 335 | 2.0 | 3.0 | 0.00 | 0.00 | 0.00 | 38 | 1017.0 |
| 20260506171601 | 46 | 277 | 3.0 | 4.0 | 0.00 | 0.00 | 0.00 | 39 | 1017.0 |
| 20260506171059 | 46 | 311 | 5.0 | 7.0 | 0.00 | 0.00 | 0.00 | 37 | 1017.3 |
| 20260506170556 | 46 | 76 | 1.0 | 1.0 | 0.00 | 0.00 | 0.00 | 38 | 1017.0 |
| 20260506170053 | 46 | 334 | 2.0 | 2.0 | 0.00 | 0.00 | 0.00 | 39 | 1017.0 |
| 20260506165552 | 45 | 256 | 3.0 | 4.0 | 0.00 | 0.00 | 0.00 | 38 | 1017.0 |
| 20260506165047 | 45 | 246 | 5.0 | 6.0 | 0.00 | 0.00 | 0.00 | 37 | 1016.7 |
| 20260506164545 | 45 | 96 | 4.0 | 6.0 | 0.00 | 0.00 | 0.00 | 37 | 1017.0 |